Weather History for Omaha Offutt, NE

Change the Weather History Date:

Tuesday, October 9, 2012

  Actual Average Record
Temperature  
Mean Temperature 48 °F -  
Max Temperature 55 °F 67 °F 82 °F (2010)
Min Temperature 38 °F 45 °F 24 °F (2000)
Degree Days  
Heating Degree Days 17    
Moisture  
Dew Point 32 °F    
Average Humidity 53    
Maximum Humidity 76    
Minimum Humidity 33    
Precipitation  
Precipitation 0.00 in - - ()
Sea Level Pressure  
Sea Level Pressure 29.95 in    
Wind  
Wind Speed 7 mph (NW)    
Max Wind Speed 20 mph    
Max Gust Speed 23 mph    
Visibility 10 miles    
Events      
Averages and records for this station are not official NWS values.
T = Trace of Precipitation, MM = Missing Value Source: NWS Daily Summary

Daily Weather History Graph

Daily Weather History Graph

Search for Another Location

Airport:

Trip Planner

Search our weather history database for the weather conditions in past years. The results will help you decide how hot, cold, wet, or windy it might be!

Date:

Astronomy

Oct. 09, 2012 Rise Set
Actual Time 7:29 AM CDT 6:51 PM CDT
Civil Twilight 7:01 AM CDT 7:19 PM CDT
Nautical Twilight 6:29 AM CDT 7:50 PM CDT
Astronomical Twilight 5:57 AM CDT 8:22 PM CDT
Moon 1:03 AM CDT (10/9) 3:22 PM CDT (10/9)
Length of Visible Light 12h 17m
Length of Day
11h 22m
Last Quarter, 36% of the Moon is Illuminated
Oct 9
Last Quarter
Oct 15
New
Oct 21
First Quarter
Oct 29
Full
Nov 6
Last Quarter

Hourly Weather History & Observations

Time (CDT) Temp. Windchill Dew Point Humidity Pressure Visibility Wind Dir Wind Speed Gust Speed Precip Events Conditions
12:55 AM 44.4 °F - 32.9 °F 64% 29.82 in 10.0 mi Calm Calm - N/A   Clear
1:55 AM 46.2 °F 42.2 °F 33.3 °F 61% 29.82 in 10.0 mi SSE 8.1 mph - N/A   Clear
2:55 AM 45.9 °F 44.6 °F 34.7 °F 65% 29.82 in 10.0 mi East 3.5 mph - N/A   Clear
3:55 AM 48.7 °F - 33.8 °F 56% 29.80 in 10.0 mi South 4.6 mph - N/A   Clear
4:55 AM 45.1 °F 42.8 °F 35.6 °F 69% 29.79 in 10.0 mi SE 4.6 mph - N/A   Mostly Cloudy
5:55 AM 42.4 °F 39.6 °F 35.4 °F 76% 29.82 in 10.0 mi WNW 4.6 mph - N/A   Partly Cloudy
6:55 AM 43.9 °F - 36.0 °F 74% 29.84 in 10.0 mi Calm Calm - N/A   Clear
7:55 AM 48.4 °F - 36.3 °F 63% 29.86 in 10.0 mi SW 3.5 mph - N/A   Clear
8:55 AM 49.5 °F - 38.3 °F 65% 29.88 in 10.0 mi WNW 4.6 mph - N/A   Clear
9:55 AM 54.3 °F - 42.4 °F 64% 29.88 in 10.0 mi North 11.5 mph - N/A   Clear
10:55 AM 54.9 °F - 42.6 °F 63% 29.91 in 10.0 mi NNW 13.8 mph - N/A   Partly Cloudy
11:55 AM 55.2 °F - 40.1 °F 57% 29.95 in 10.0 mi NNW 16.1 mph 23.0 mph N/A   Scattered Clouds
12:55 PM 53.8 °F - 35.2 °F 50% 29.98 in 10.0 mi NNW 17.3 mph 21.9 mph N/A   Partly Cloudy
1:11 PM 53.6 °F - 33.8 °F 47% 29.98 in 10.0 mi North 17.3 mph 21.9 mph N/A   Light Drizzle
1:20 PM 53.6 °F - 33.8 °F 47% 29.98 in 10.0 mi NNW 13.8 mph 21.9 mph N/A   Partly Cloudy
1:55 PM 55.4 °F - 29.8 °F 38% 29.97 in 10.0 mi NW 19.6 mph - 0.00 in   Mostly Cloudy
2:55 PM 54.1 °F - 26.1 °F 34% 29.98 in 10.0 mi NW 13.8 mph - N/A   Scattered Clouds
3:55 PM 53.2 °F - 25.7 °F 34% 30.00 in 10.0 mi NW 17.3 mph 23.0 mph N/A   Scattered Clouds
4:55 PM 52.0 °F - 25.2 °F 35% 30.02 in 10.0 mi NW 11.5 mph - N/A   Mostly Cloudy
5:55 PM 53.1 °F - 27.5 °F 37% 30.02 in 10.0 mi WNW 6.9 mph - N/A   Scattered Clouds
6:55 PM 46.6 °F - 26.4 °F 45% 30.04 in 10.0 mi WNW 5.8 mph - N/A   Clear
7:55 PM 50.0 °F - 22.1 °F 33% 30.06 in 10.0 mi NNW 8.1 mph - N/A   Clear
8:55 PM 47.8 °F - 24.8 °F 41% 30.09 in 10.0 mi NNW 8.1 mph - N/A   Clear
9:55 PM 45.9 °F 42.9 °F 27.1 °F 48% 30.11 in 10.0 mi North 5.8 mph - N/A   Clear
10:55 PM 41.5 °F 39.6 °F 26.6 °F 55% 30.14 in 10.0 mi NNW 3.5 mph - N/A   Clear
11:55 PM 38.7 °F 35.2 °F 26.4 °F 61% 30.15 in 10.0 mi West 4.6 mph - N/A   Clear